OpenBCM V2.0.3 (Linux)

Packet Radio Mailbox

IZ3LSV

[San Dona' di P. JN]

 Login: GUEST





  
I0OJJ  > KEPS     22.04.26 02:29l 308 Lines 14614 Bytes #27 (0) @ AMSAT
BID : ORB26112.1
Read: GUEST
Subj: 2Line Orbital Elements 26112.AMSAT
Path: IZ3LSV<IK6IHL<IK7NXU<HB9ON<DK0WUE<K7EK<VE3CGR<VE3TOK<IR0AAB<I0OJJ
Sent: 260422/0021z @:I0OJJ.ITA.EU [Rome] obcm1.13-38-g65b7
From: I0OJJ @ I0OJJ.ITA.EU (Gustavo)
To:   KEPS @ AMSAT
X-Info: This message was generated automatically


QST de W1STR

AMSAT Orbital Elements for Amateur Satellites in TLE Format
>From Orbital Analysis Office
New England Sci-Tech STEM Education Center
Natick MA April 22, 2026
To all radio amateurs


These element sets describe the orbits of various satellites 
in use by the amateur radio community. For details see:
www.amsat.org/keplerian-elements-formats/

A daily update of element sets is available at:
www.amsat.org/tle/daily-bulletin.txt
or without bulletin text:
www.amsat.org/tle/dailytle.txt


AO-07
1 07530U 74089B   26111.65744985 -.00000055  00000-0 -54241-4 0  9994
2 07530 101.9936 124.3093 0011926 238.0486 234.4013 12.53697141353432
UO-11
1 14781U 84021B   26111.77063086  .00000922  00000-0  99775-4 0  9998
2 14781  97.8015  77.9971 0008135  22.1808 337.9760 14.90642980248722
AO-27
1 22825U 93061C   26111.43112475  .00000072  00000-0  44405-4 0  9996
2 22825  98.6911 178.8564 0007229 266.1142  93.9214 14.30926414698887
FO-29
1 24278U 96046B   26111.82375058 -.00000030  00000-0  78579-5 0  9992
2 24278  98.5307 328.3939 0348908 242.6302 113.8932 13.53271365465542
GO-32
1 25397U 98043D   26111.72928554  .00000023  00000-0  30118-4 0  9995
2 25397  99.0061 103.0692 0001935  50.9945 309.1405 14.24416730443290
ISS
1 25544U 98067A   26111.74820810  .00009534  00000-0  18169-3 0  9990
2 25544  51.6323 219.4368 0006711 334.6967  25.3692 15.48877266563003
NO-44
1 26931U 01043C   26111.86348735  .00000086  00000-0  63034-4 0  9998
2 26931  67.0526  29.9480 0006572 264.1209  95.9144 14.31933315282383
SO-50
1 27607U 02058C   26111.84690676  .00000691  00000-0  99339-4 0  9997
2 27607  64.5517 303.2842 0075570 272.7161  86.5297 14.82918295256104
CO-55
1 27844U 03031E   26111.55709536  .00000194  00000-0  10296-3 0  9998
2 27844  98.6761 120.8251 0009412 357.7459   2.3676 14.24299094183616
RS-22
1 27939U 03042A   26111.85606065  .00000971  00000-0  15802-3 0  9992
2 27939  98.3465 294.6275 0012596  87.4572  23.3754 14.73363584207252
CO-65
1 32785U 08021C   26111.89123455  .00004874  00000-0  31312-3 0  9990
2 32785  97.8257  92.1747 0007954 211.1434 148.9323 15.08904563976706
CO-66
1 32791U 08021J   26111.23576157  .00017002  00000-0  57358-3 0  9991
2 32791  97.7537 106.5064 0004669 124.7964 235.3716 15.30773194978575
RS-30
1 32953U 08025A   26111.84427029  .00000083  00000-0  52786-3 0  9996
2 32953  82.5079  30.4820 0020644  74.1725 286.1629 12.43177787812691
SRMSAT
1 37841U 11058D   26111.47611806  .00000368  00000-0  55921-4 0  9995
2 37841  19.9730  42.7261 0011590 300.0471 221.4905 14.11561661749798
ZACUBE-1
1 39417U 13066B   26111.87518847  .00003799  00000-0  29859-3 0  9993
2 39417  97.8132  73.9117 0044584  80.8216 279.8047 15.00708293672281
Delfi-N3xt
1 39428U 13066N   26111.67856219  .00006212  00000-0  55020-3 0  9993
2 39428  97.8346  32.0715 0076892  35.9066 324.7287 14.94335972666181
GOMX-1
1 39430U 13066Q   26111.79961211  .00001257  00000-0  19631-3 0  9990
2 39430  97.6523 315.8119 0127468 258.5720 100.1148 14.69247382661631
LO-74
1 39440U 13066AA  26111.85325560  .00002371  00000-0  22481-3 0  9994
2 39440  97.8867  60.6273 0057101 212.9212 146.8447 14.93361104668583
AO-73
1 39444U 13066AE  26111.89535920  .00007217  00000-0  45707-3 0  9995
2 39444  97.8251  82.2133 0038177  38.0760 322.3154 15.08672517671171
DTUSAT-2
1 40030U 14033W   26111.22465111  .00006252  00000-0  34570-3 0  9998
2 40030  98.0874 105.3738 0009785  74.0781 286.1526 15.14240517644068
LILACSAT-2
1 40908U 15049K   26111.86599591  .00016157  00000-0  29380-3 0  9998
2 40908  97.4734 146.6230 0008911  98.2657 261.9604 15.49570424587026
Horyu-4
1 41340U 16012D   26111.25814086  .00131797  00000-0  95260-3 0  9990
2 41340  30.9882 128.2757 0006075 198.7495 161.2937 15.71954531561795
Lapan A3
1 41603U 16040E   26111.92194635  .00002784  00000-0  90362-4 0  9990
2 41603  97.1494 109.9352 0009310 207.5538 152.5213 15.32730713546198
CAS-2T
1 41847U 16066G   26111.65145145  .00000446  00000-0  72854-4 0  9999
2 41847  98.3836 188.0244 0341120 301.2159  55.6016 14.44560975496638
TechnoSat
1 42829U 17042E   26111.72684201  .00003216  00000-0  23265-3 0  9993
2 42829  97.4220 271.5671 0016666 287.6215  72.3191 15.04600036478216
AO-91
1 43017U 17073E   26111.89656538  .00007839  00000-0  34842-3 0  9995
2 43017  97.4779 340.2871 0153916 162.2603 198.4087 15.11686142456883
S-Net D
1 43186U 18014G   26111.64642063  .00003647  00000-0  19261-3 0  9990
2 43186  97.5397  16.8022 0007398 203.0014 157.0889 15.16129868450194
S-Net B
1 43187U 18014H   26111.65677315  .00003779  00000-0  19957-3 0  9998
2 43187  97.5403  16.7973 0008149 198.9083 161.1848 15.16101409450192
S-Net A
1 43188U 18014J   26111.64556881  .00003699  00000-0  19524-3 0  9993
2 43188  97.5412  16.9845 0008024 199.5822 160.5103 15.16136734450199
S-Net C
1 43189U 18014K   26111.66033520  .00003908  00000-0  20626-3 0  9994
2 43189  97.5429  17.0652 0009610 193.3705 166.7274 15.16093270448742
Ten-Koh
1 43677U 18084G   26111.79432942  .00001730  00000-0  13455-3 0  9991
2 43677  98.0797 301.7871 0008318 311.8402  48.2110 15.02695926407692
PO-101
1 43678U 18084H   26111.81338459  .00002192  00000-0  18041-3 0  9992
2 43678  98.1051 305.6274 0013591   1.4202 358.7056 15.00171085407765
QO-100
1 43700U 18090A   26111.86450859  .00000137  00000-0  00000+0 0  9998
2 43700   0.0122 222.5816 0001060 182.1900 142.1503  1.00271924 27118
MinXSS-2
1 43758U 18099A   26111.87424025  .00030263  00000-0  68046-3 0  9998
2 43758  97.4557 186.6660 0009233 112.7660 247.4564 15.43238093405435
AO-95
1 43770U 18099N   26111.42536778  .00010751  00000-0  42708-3 0  9999
2 43770  97.4422 171.9227 0009258 177.8365 182.2915 15.25462386404560
SNUSat 2
1 43782U 18099AA  26111.63826610  .00007118  00000-0  32399-3 0  9990
2 43782  97.4111 165.9137 0011936 129.7991 230.4297 15.20942913404437
SnugLite
1 43784U 18099AC  26111.63961601  .00010007  00000-0  39270-3 0  9998
2 43784  97.3916 166.5151 0004521 120.1208 240.0479 15.25917983404693
ITASat 1
1 43786U 18099AE  26111.09352252  .00006089  00000-0  29952-3 0  9997
2 43786  97.4081 163.7611 0012803 184.3156 175.7970 15.18305968404242
EAGLET 1
1 43790U 18099AJ  26111.76055815  .00003451  00000-0  20162-3 0  9995
2 43790  97.4284 162.9269 0011522 172.7788 187.3611 15.12495367403800
ESEO
1 43792U 18099AL  26111.83415059  .00001012  00000-0  77201-4 0  9993
2 43792  97.4037 151.6267 0012862 157.1638 203.0163 15.04073432403332
JO-97
1 43803U 18099AX  26111.42780535  .00016671  00000-0  54394-3 0  9999
2 43803  97.4168 174.1327 0007531 112.4689 247.7350 15.31830017404934
Suomi 100
1 43804U 18099AY  26111.41940143  .00010854  00000-0  40999-3 0  9995
2 43804  97.4231 172.0677 0011817 119.1622 241.0801 15.27111368404758
ISAT
1 43879U 18111D   26111.54538242  .00058123  00000-0  81173-3 0  9999
2 43879  97.5905  42.8226 0008352 123.9625 236.2424 15.56646747402334
UWE-4
1 43880U 18111E   26111.58488488  .00026417  00000-0  60530-3 0  9996
2 43880  97.5856  37.5265 0009265 151.4532 208.7224 15.42703133402040
Sparrow
1 43881U 18111F   26111.56841278  .00076002  00000-0  87007-3 0  9998
2 43881  97.6126  47.6633 0006009 135.1223 225.0521 15.61867357402505
Prox-1
1 44339U 19036A   26111.73278308  .00010220  00000-0  10248-2 0  9993
2 44339  23.9939 130.9526 0006872 102.1220 258.0049 14.89229321365044
Taurus 1
1 44530U 19059C   26111.88295602  .00006888  00000-0  11184-2 0  9998
2 44530  98.6376 273.2599 0009912 127.6131 232.5975 14.71456691350360
TO-108
1 44881U 19093C   26111.83682937  .00001262  00000-0  14885-3 0  9994
2 44881  97.7548 185.4402 0011989 273.5825  86.4020 14.86428279343046
RS-44
1 44909U 19096E   26111.48016797  .00000021  00000-0  49026-4 0  9992
2 44909  82.5263  17.3865 0216385 277.0493  80.6046 12.79747924295092
SALSAT
1 46495U 20068K   26111.74644299  .00006660  00000-0  23943-3 0  9992
2 46495  97.8871 111.4141 0011278 133.5780 226.6396 15.28944260306733
CSS (TIANHE-1)
1 48274U 21035A   26111.88058793  .00024222  00000-0  26437-3 0  9992
2 48274  41.4677 304.9452 0006589 251.1279 108.8847 15.62764680284362
CUTE
1 49263U 21088D   26111.25149134  .00085962  00000-0  60836-3 0  9999
2 49263  97.4198 206.0466 0002694 180.6792 179.4469 15.73727201253557
TeikyoSat 4
1 49396U 21102B   26111.83764941  .00001588  00000-0  10328-3 0  9999
2 49396  97.3726 143.5055 0013542 123.1676 237.0854 15.09300608244226
Z-Sat
1 49399U 21102E   26111.83948667  .00004468  00000-0  22321-3 0  9997
2 49399  97.3378 148.8754 0018476  84.8282 275.5060 15.17821998244891
KOSEN 1
1 49402U 21102H   26111.63364117  .00005990  00000-0  23478-3 0  9997
2 49402  97.3242 154.9062 0015102  53.2827 306.9796 15.26036773245394
HO-113
1 50466U 21131B   26111.89337556  .00000459  00000-0  15550-3 0  9993
2 50466  98.4949 204.5975 0002852 265.6037  94.4826 14.41301262227002
SNUGLITE 2
1 52899U 22065F   26111.86123725  .00000743  00000-0  15029-3 0  9997
2 52899  98.2120 256.8200 0007268 190.9713 169.1332 14.64235882202757
UmKA 1 (RS40S)
1 57172U 23091G   26111.82586806  .00004993  00000-0  23352-3 0  9994
2 57172  97.5093 170.7539 0011633 321.6535  38.3872 15.20174079155444
CubeBel-2 (EU11S)
1 57175U 23091K   26111.81674448  .00010986  00000-0  40650-3 0  9995
2 57175  97.5087 174.5770 0008635 319.9700  40.0902 15.27827425155699
RS-38S
1 57189U 23091Z   26111.82829468  .00014460  00000-0  43814-3 0  9991
2 57189  97.5119 180.2545 0005956 266.5867  93.4694 15.34240654156049
SONATE-2
1 59112U 24043Q   26111.37617296  .00037959  00000-0  57205-3 0  9998
2 59112  97.5474 258.4933 0007052  57.4189 302.7745 15.54676810119055
